Theta_e
309 306 304 304 305 304 303 302 302 305 307 304 305 305 307 311 311 310 310 313 314 315 318 321 323 326 327 330 332 334 336 344 340 337 333 331 327 331 336 342 353 354 347 350
307 305 306 306 305 304 304 303 302 305 307 305 304 304 308 310 309 309 311 311 313 314 317 319 322 324 326 327 330 332 334 340 340 337 338 336 338 330 333 339 349 352 349 352
303 306 306 304 304 303 304 302 302 300 303 306 305 303 305 307 308 310 312 313 314 314 316 318 320 322 324 325 327 329 332 336 344 344 337 338 340 342 332 334 342 346 349 350
305 307 303 303 303 304 299 304 303 301 300 296 305 294 302 306 306 309 310 312 313 314 315 316 317 319 321 322 326 328 330 333 336 346 341 343 334 335 331 332 335 339 352 351
303 303 303 301 302 304 301 305 303 302 301 301 300 297 300 304 302 305 309 309 311 315 314 314 315 317 319 322 323 327 329 331 335 338 345 337 342 336 336 336 348 352 349 349
305 308 305 304 305 305 306 304 304 304 301 294 299 297 297 300 303 305 308 309 310 313 314 314 316 318 318 320 321 325 326 328 330 333 332 343 344 346 341 339 335 332 334 341
304 305 306 306 302 306 305 301 294 291 292 291 299 296 298 304 305 306 306 307 310 313 313 313 313 314 316 317 321 322 324 325 327 328 327 335 340 344 345 344 334 337 329 330
300 297 303 306 303 300 301 301 293 287 288 290 298 293 298 306 307 308 309 310 313 313 311 312 313 314 317 318 321 320 323 324 324 325 327 333 338 342 341 343 339 337 339 342
298 299 305 306 306 304 300 297 303 295 296 292 295 299 303 304 304 305 307 307 309 311 311 311 313 313 316 317 318 320 322 323 323 323 323 326 332 336 338 340 342 336 339 336
303 296 303 303 305 306 303 304 295 296 287 285 291 293 294 298 299 304 305 307 308 309 310 312 312 314 315 316 316 321 321 321 322 321 321 319 319 329 333 335 329 334 336 336
305 302 300 303 301 299 299 298 299 298 295 288 286 291 302 300 303 304 305 307 305 307 309 312 311 313 314 314 314 317 317 318 319 320 320 319 317 320 327 333 330 329 332 330
305 301 295 297 303 302 300 297 298 294 290 293 293 291 303 303 304 305 304 306 306 308 311 310 311 312 313 311 313 314 317 317 317 319 319 316 316 320 327 329 328 328 327 325
303 297 292 294 299 302 298 299 299 298 297 291 288 290 303 303 304 307 304 306 307 307 306 305 310 310 310 310 311 313 314 315 316 317 317 318 315 319 323 324 325 320 318 316
303 297 294 291 294 298 295 296 297 297 294 292 291 294 298 302 303 305 305 306 307 307 305 307 308 310 310 311 311 311 312 315 314 313 315 314 315 319 321 321 317 313 312 309
303 296 298 298 297 297 296 296 296 294 295 292 294 294 298 302 302 304 306 303 305 304 304 305 307 309 307 308 310 310 311 312 311 311 311 315 317 320 321 315 313 309 306 306
303 293 297 295 298 297 294 296 296 296 296 295 296 296 302 303 305 303 302 302 302 302 305 305 305 307 306 308 308 307 308 309 309 308 310 314 314 318 316 311 307 304 304 303
300 297 295 291 296 294 291 296 296 296 297 297 293 298 303 301 302 302 302 302 303 303 304 305 304 306 306 306 306 307 306 308 308 308 311 312 315 316 310 305 303 301 301 302
298 292 296 291 293 284 296 300 299 297 298 300 300 301 301 301 302 303 304 302 302 302 301 303 303 304 305 306 305 306 307 308 307 308 310 312 315 310 303 301 300 300 299 299
304 297 293 287 288 292 295 299 298 295 295 301 300 300 300 301 302 302 304 303 302 303 303 304 304 305 303 303 304 305 305 306 306 306 310 312 311 304 300 299 298 298 298 298
302 301 295 291 284 283 295 300 303 301 291 301 302 300 299 301 293 298 303 304 303 303 304 304 304 304 304 304 304 304 303 304 304 305 309 308 304 300 298 297 297 298 298 299
295 295 291 290 287 292 299 302 303 288 293 302 302 302 300 299 300 303 304 302 303 303 304 305 305 302 303 304 304 302 303 303 306 307 305 303 300 298 298 298 298 299 299 299
294 292 292 293 288 285 304 301 293 299 304 303 303 302 302 303 304 302 302 301 301 301 301 301 300 301 303 303 302 301 302 305 307 303 301 299 298 298 299 298 299 299 301 302
292 297 296 294 294 304 304 303 305 306 301 302 303 304 301 300 300 299 299 300 299 298 299 300 300 300 301 302 301 300 303 306 302 300 298 297 298 298 298 298 302 304 305 303
300 302 297 296 299 299 302 304 304 306 303 305 306 305 302 299 298 299 298 299 297 297 297 297 297 298 297 299 301 303 305 303 300 297 297 298 297 298 299 302 305 304 303 302
299 300 297 295 299 300 303 303 304 306 305 303 303 301 299 298 297 297 297 296 296 295 295 295 295 296 297 300 302 305 303 301 298 297 298 298 299 301 300 299 301 301 296 299
301 299 297 296 301 301 303 305 306 302 302 301 299 297 299 299 296 297 296 296 293 293 294 295 296 297 299 301 304 303 302 300 297 297 297 298 302 303 302 301 298 291 292 292
Wind_Speed
3 12 10 10 6 8 10 12 13 12 10 9 15 18 19 17 15 12 6 2 3 3 4 6 7 8 10 12 14 15 16 14 12 11 11 11 13 10 11 11 11 9 8 8
10 5 6 5 4 9 11 14 14 11 11 15 19 22 20 19 1 4 3 4 4 5 7 7 7 7 9 11 13 15 16 16 13 10 9 10 11 10 11 11 11 12 11 10
10 10 3 5 9 11 12 12 13 16 18 19 20 19 16 5 3 4 6 4 5 4 7 8 8 10 11 10 11 13 16 16 14 14 10 9 11 9 11 10 6 11 8 10
8 9 5 9 12 8 12 10 12 17 18 15 18 19 18 7 10 12 8 7 4 5 8 10 12 12 12 12 12 14 13 16 15 19 11 11 12 11 10 11 9 8 17 11
5 5 8 11 7 7 13 12 16 18 20 19 20 11 4 5 8 8 12 5 3 2 5 12 14 15 12 11 11 13 13 15 16 19 16 10 11 11 10 8 6 4 2 7
11 4 6 8 7 7 11 14 18 21 17 12 7 5 12 14 17 10 10 10 6 7 8 11 13 15 16 13 12 12 15 14 16 16 22 13 11 12 12 6 5 6 9 9
2 9 5 5 11 5 10 15 12 8 10 13 9 15 19 12 7 7 10 12 10 9 12 14 18 19 17 16 14 15 15 14 15 17 16 18 16 12 11 9 6 9 7 7
3 6 6 7 9 12 17 9 8 18 15 21 19 18 6 6 6 6 10 12 13 10 12 15 15 18 20 19 17 14 13 13 15 16 18 16 17 10 11 13 11 11 11 11
8 3 3 11 10 10 10 13 9 13 16 17 14 14 21 20 17 9 10 14 7 10 12 12 13 13 14 15 3 10 12 12 13 15 16 17 18 14 11 12 9 7 9 9
7 12 9 3 6 16 12 11 11 8 12 18 16 22 16 18 17 19 25 25 26 12 16 11 11 9 11 13 3 21 12 13 15 13 14 15 17 16 8 9 11 11 10 12
10 8 9 12 15 13 10 12 13 12 11 15 18 10 23 24 16 18 20 21 12 22 21 11 7 8 10 12 14 14 15 14 12 13 11 13 13 21 12 8 9 7 10 10
8 8 11 17 18 5 9 12 10 8 13 13 14 16 20 14 11 8 8 11 10 18 18 21 11 11 9 11 11 13 14 15 15 11 12 9 11 19 14 13 12 13 11 10
8 5 9 9 7 9 8 8 12 14 14 14 16 15 17 17 18 17 17 15 10 13 15 18 15 11 12 7 11 15 13 11 14 15 12 11 8 12 13 11 11 10 10 10
5 6 12 11 18 17 17 16 16 15 9 16 16 22 21 18 16 14 14 16 10 4 7 9 16 17 13 14 16 16 17 13 11 14 15 10 7 12 7 10 9 9 10 9
5 10 14 18 19 19 19 19 17 17 18 16 18 19 15 12 11 16 16 15 18 13 11 13 12 12 11 13 14 16 13 15 13 14 14 13 9 8 7 8 8 9 9 9
4 5 13 18 19 15 16 19 20 19 17 17 15 16 13 11 11 12 14 16 17 17 19 15 18 18 16 19 17 12 14 14 13 13 14 15 10 8 8 8 9 9 10 10
8 4 9 12 12 19 15 7 10 9 10 12 12 13 12 11 12 17 18 18 21 18 21 21 17 19 18 18 14 15 13 11 10 11 13 12 9 7 9 9 8 10 10 9
4 2 9 8 13 5 3 9 9 10 10 11 14 15 9 11 16 19 21 18 20 20 19 18 17 15 14 14 12 13 14 12 10 12 13 12 6 8 9 9 8 9 8 9
11 5 4 4 6 18 18 4 5 12 14 16 9 12 17 18 20 18 17 16 15 19 18 14 14 14 14 13 13 11 11 11 10 11 13 6 11 10 9 8 9 8 8 9
8 12 7 6 5 8 9 6 2 9 15 4 12 16 17 18 14 16 21 21 18 18 15 11 15 13 10 9 9 10 10 10 9 9 8 13 11 10 9 9 9 8 8 8
9 10 14 12 9 10 7 9 7 9 7 20 20 20 18 18 16 21 20 20 15 16 17 19 17 12 11 10 8 9 9 9 8 6 10 12 11 11 10 9 7 7 8 6
10 8 8 9 8 13 10 13 9 13 18 19 20 14 23 23 24 23 21 17 18 20 19 18 15 13 11 8 7 7 7 8 4 9 13 11 10 8 7 9 6 6 6 6
6 9 7 7 6 15 18 13 16 12 16 17 19 19 17 19 20 21 18 23 17 17 15 12 10 9 8 3 5 7 8 1 10 12 12 11 10 8 6 7 8 5 6 8
12 10 10 15 10 15 17 17 10 15 13 17 19 20 16 21 17 23 20 19 14 16 14 12 13 11 9 8 6 5 0 12 12 14 11 10 10 7 5 2 2 6 8 8
11 8 14 15 19 18 15 13 12 18 17 20 20 15 15 19 20 20 19 18 14 13 11 9 9 8 7 5 2 5 12 13 13 12 11 11 6 5 10 11 9 11 11 10
12 12 9 13 17 15 19 16 18 12 17 16 13 16 19 20 19 18 16 13 13 14 11 10 9 7 5 3 7 12 12 14 13 11 9 7 8 11 10 13 12 16 16 18
Wind_Direction
248 259 32 30 4 336 318 304 298 295 343 297 297 296 288 295 291 279 241 323 295 319 339 6 356 5 360 4 357 356 349 339 326 302 289 252 245 233 240 239 234 255 244 245
235 107 70 337 298 294 294 291 296 327 327 321 303 294 293 275 261 329 347 264 286 326 344 356 348 4 355 6 1 359 354 343 332 312 297 280 291 248 231 230 215 199 217 231
312 74 63 289 300 310 302 313 336 316 310 287 278 291 295 100 151 171 224 236 263 320 338 335 337 339 344 354 6 9 356 350 343 334 298 267 269 264 265 242 159 215 194 229
286 65 299 293 291 331 310 15 309 300 300 302 312 292 282 258 187 180 228 232 331 344 341 339 338 340 343 341 359 358 10 358 352 337 328 293 286 261 239 250 236 211 199 198
68 279 305 305 335 337 300 329 300 286 280 288 284 250 181 237 236 246 210 197 262 353 339 339 336 330 320 332 355 352 1 6 356 350 335 312 280 278 265 263 220 140 214 223
281 329 288 307 318 256 302 284 289 277 257 249 305 315 290 301 318 325 302 344 352 321 347 328 328 319 329 330 347 1 350 5 360 4 345 331 302 309 307 274 240 226 223 200
255 257 78 293 291 296 280 315 312 295 303 295 343 322 313 333 356 1 334 317 305 348 336 341 331 332 324 319 356 341 347 357 5 4 350 352 351 330 305 303 277 267 273 241
291 288 186 109 315 312 298 306 295 299 313 312 306 280 331 198 159 349 297 360 350 338 321 322 344 335 350 353 357 339 347 346 2 7 0 5 356 350 341 354 354 328 357 1
314 267 32 260 307 312 312 278 7 289 283 277 306 323 327 44 22 332 279 222 234 306 317 341 1 355 359 333 20 353 339 345 5 3 2 8 350 354 1 1 9 1 360 346
326 294 275 21 297 255 227 301 302 301 296 295 303 312 290 10 329 347 9 10 349 297 357 350 344 341 356 337 87 284 29 354 341 6 7 353 339 328 7 11 6 356 359 356
293 266 284 281 268 316 299 265 267 285 305 307 306 296 340 323 351 358 344 347 351 317 335 328 296 332 342 319 338 352 354 343 357 345 358 0 351 322 353 0 5 8 14 22
33 309 293 292 290 27 290 291 298 285 292 296 295 282 290 317 20 0 327 283 316 286 346 339 320 356 358 338 342 345 343 339 339 332 339 340 359 316 348 350 12 8 9 15
7 273 310 287 144 179 236 273 283 289 279 276 286 287 293 321 0 349 349 347 10 350 351 343 311 353 313 319 337 334 322 323 328 326 323 322 358 310 339 355 10 9 14 27
252 265 255 270 302 310 296 294 291 286 271 279 277 298 301 356 338 342 334 352 1 270 246 302 331 329 333 336 340 331 325 323 323 325 315 304 314 310 330 353 17 21 32 35
270 269 275 280 292 292 286 280 280 276 276 276 288 295 336 331 333 333 347 353 332 321 312 311 300 319 325 326 346 336 331 325 334 316 303 306 289 303 355 22 30 41 43 44
242 260 289 286 276 277 297 293 285 270 267 268 294 303 22 344 330 354 330 323 325 321 318 342 339 334 328 339 341 341 328 315 321 306 295 301 301 326 32 47 46 54 56 54
288 304 291 283 328 318 282 298 337 318 300 291 295 302 338 350 332 331 324 325 319 320 323 327 322 326 336 330 323 315 311 308 304 302 294 289 299 28 53 58 63 66 59 52
190 146 261 295 308 261 233 349 327 310 292 300 303 327 357 331 328 320 313 325 325 328 326 316 315 309 330 319 318 318 311 300 302 298 292 278 48 69 73 77 76 66 59 55
210 208 279 269 285 281 281 76 346 330 310 316 12 351 336 325 318 307 321 343 321 313 313 305 303 316 318 314 313 298 302 295 302 302 305 333 77 80 89 86 75 69 65 58
196 216 215 296 305 282 4 37 28 314 288 41 328 323 321 322 306 306 333 325 318 316 308 311 318 303 294 278 285 289 293 303 296 310 336 62 82 100 92 83 80 73 74 70
202 217 231 231 234 268 317 19 331 284 334 329 332 322 308 308 304 311 318 320 315 315 315 309 299 291 279 292 270 285 283 283 288 332 69 82 89 87 92 90 84 87 89 90
273 278 278 226 258 268 27 336 327 326 316 309 306 308 311 311 309 313 320 313 324 312 306 292 291 286 290 281 288 267 267 285 33 89 89 88 88 95 91 94 101 110 118 98
283 254 261 282 261 311 320 338 324 307 312 303 313 325 312 294 315 315 308 311 313 303 299 313 312 312 307 248 274 275 270 274 101 94 94 95 95 90 102 117 120 111 110 105
284 289 273 264 274 293 303 297 307 296 308 311 308 313 318 314 308 317 310 309 312 307 310 321 308 300 295 290 270 252 359 102 104 104 105 102 101 124 143 137 32 95 89 80
281 266 272 277 282 285 295 290 323 317 320 316 318 338 323 315 311 305 308 310 305 306 293 284 278 283 279 273 239 119 106 110 109 106 107 107 114 105 81 58 53 68 52 46
270 274 273 275 285 290 297 305 316 310 307 326 329 319 311 308 306 311 306 311 300 293 284 270 265 264 253 199 124 109 112 121 115 111 104 123 147 110 106 94 81 54 61 49